Theta_e
292 293 291 292 292 292 292 292 293 287 285 286 285 288 289 289 287 286 285 283 284 286 287 287 288 289 290 292 293 294 295 295 296 296 297 297 298 298
291 291 291 291 290 290 290 290 291 292 290 288 286 287 288 286 286 285 285 281 283 285 285 286 287 288 290 291 291 292 293 294 295 295 295 296 296 296
289 289 289 290 289 289 288 288 287 288 289 282 285 285 285 284 283 283 284 284 284 283 284 285 287 288 289 289 289 290 291 292 292 292 292 293 293 294
288 287 287 286 287 287 286 285 284 284 286 282 280 281 283 284 283 282 281 281 283 283 284 285 287 287 287 287 288 288 289 289 289 290 290 291 291 292
288 286 286 285 285 285 285 284 284 281 284 284 279 280 280 280 279 281 281 282 281 283 284 285 285 286 286 286 287 287 287 287 287 288 288 289 290 291
287 286 286 284 284 284 283 283 283 282 281 281 281 277 278 279 280 280 279 281 281 282 282 282 283 284 284 285 285 285 285 285 286 287 287 288 288 289
285 284 285 285 285 286 283 284 283 282 281 280 280 277 277 276 277 280 279 281 281 282 281 282 282 283 284 284 283 283 284 284 285 286 286 287 287 288
284 284 284 284 284 287 286 286 284 282 280 280 279 277 278 278 279 279 278 278 278 282 281 281 282 282 282 282 283 284 284 284 285 285 286 286 286 286
284 283 283 282 283 283 285 286 284 285 284 282 280 279 278 279 280 278 278 278 278 280 280 277 280 279 281 281 283 284 284 284 284 285 285 285 285 285
285 284 283 282 282 281 282 282 282 282 282 281 281 281 281 281 281 280 279 279 279 279 279 273 278 278 281 281 283 283 284 284 284 284 284 284 284 284
284 284 284 282 283 284 281 281 280 280 283 282 282 282 283 283 281 280 277 276 275 275 277 275 276 276 278 279 281 282 282 282 282 282 282 283 283 283
284 283 283 283 284 283 281 281 278 278 279 279 279 281 282 281 281 280 279 276 275 273 276 274 275 275 274 278 279 280 279 280 281 281 281 282 282 281
284 282 281 283 283 283 284 281 280 280 280 279 280 279 279 280 280 280 278 277 274 273 276 275 274 274 273 273 276 277 278 278 278 279 280 281 281 281
284 282 281 282 283 283 283 283 283 282 280 279 278 277 276 276 276 275 275 276 276 275 275 275 272 273 272 271 271 276 276 277 278 277 278 279 280 280
285 282 281 281 283 283 284 284 281 279 278 276 276 276 276 275 275 274 274 274 274 274 274 274 273 273 272 272 271 272 273 275 277 276 277 276 277 278
284 280 281 280 282 281 281 281 280 277 277 276 275 275 274 273 272 272 271 271 270 270 272 273 273 272 271 272 272 271 273 271 275 275 276 276 277 278
280 279 278 277 278 279 279 278 278 276 275 275 273 271 271 271 270 271 271 270 268 268 269 271 272 272 272 271 269 271 271 272 273 274 274 273 274 275
277 276 276 277 277 278 278 277 276 274 274 272 272 271 270 270 270 270 270 269 268 268 268 269 269 269 270 271 273 270 271 271 273 273 273 271 270 273
276 276 276 277 278 277 277 274 273 273 272 272 271 270 269 269 269 268 268 268 267 268 268 268 268 267 265 264 270 273 270 271 271 269 270 270 270 272
277 276 276 277 278 276 272 272 271 270 270 270 269 269 269 268 267 267 267 267 267 267 266 267 267 267 266 265 266 268 272 269 269 268 269 271 272 274
277 276 277 276 274 273 272 270 270 269 269 268 268 267 267 267 266 267 266 265 265 265 265 265 268 269 268 268 265 265 269 272 271 269 269 268 267 268
277 275 273 272 272 271 270 269 268 267 267 266 265 265 265 266 265 265 265 265 265 265 266 267 268 268 266 265 264 264 266 268 270 271 271 270 267 264
273 272 270 269 269 268 267 267 266 265 265 264 264 264 264 263 265 265 265 264 264 264 265 265 266 266 265 265 264 264 264 264 265 265 267 270 271 272
Wind_Speed
14 13 10 8 8 8 7 6 6 7 10 10 7 11 8 8 9 8 5 3 8 9 10 8 8 9 10 11 12 12 13 13 15 16 16 16 17 17
12 15 13 10 9 9 8 8 7 6 6 5 9 8 10 8 9 7 6 4 10 10 10 10 10 11 11 11 13 13 13 15 16 16 17 17 18 18
15 15 16 14 10 10 9 8 7 6 5 3 6 8 12 11 8 8 6 7 6 9 11 11 12 13 11 11 13 13 14 15 17 16 16 17 17 17
19 18 18 12 16 12 10 12 10 9 6 6 7 8 10 11 9 8 6 6 6 8 11 13 14 14 12 13 14 14 16 17 18 18 17 17 16 16
19 19 19 17 17 13 14 12 10 7 9 8 5 5 4 7 8 8 8 8 7 10 13 14 14 13 12 15 15 15 17 18 18 18 16 17 18 18
19 19 19 20 20 18 15 14 10 9 8 8 8 6 7 7 7 8 8 7 7 7 9 10 10 12 15 17 17 17 16 18 19 18 18 18 19 20
18 17 19 19 25 21 14 15 14 11 8 9 8 7 8 7 11 8 7 5 6 5 5 5 5 5 6 11 13 13 13 16 18 20 20 20 21 22
19 19 18 20 21 27 29 26 23 18 15 11 9 11 12 9 9 8 6 4 2 3 2 5 5 7 8 8 15 16 18 19 20 21 21 20 20 22
20 18 17 15 20 20 28 27 28 29 24 16 16 13 11 10 11 10 8 6 4 3 2 8 5 9 7 9 19 19 19 21 21 20 20 20 22 23
20 20 19 20 20 21 20 20 20 19 19 12 12 10 8 10 10 8 8 6 4 5 4 5 4 7 6 9 19 20 20 20 19 20 20 21 22 24
18 18 19 20 25 34 21 21 18 16 21 23 18 17 17 19 14 9 8 7 5 4 6 6 6 5 8 10 10 15 15 18 21 20 21 21 23 25
16 17 23 20 25 32 20 20 19 19 18 17 14 17 18 16 19 11 9 9 6 3 6 6 3 2 5 5 6 7 9 17 20 21 21 22 23 12
13 12 12 28 28 31 30 18 21 17 23 16 13 11 11 11 9 9 10 9 9 7 5 4 2 3 5 5 8 10 10 11 11 13 19 21 20 18
14 12 11 24 29 30 28 27 28 25 14 14 13 12 11 9 9 8 10 9 8 8 7 7 4 6 7 9 9 7 9 10 11 11 10 14 18 22
11 14 20 25 29 28 34 31 27 14 14 13 14 12 10 9 10 9 8 8 7 7 7 9 9 10 9 11 11 11 12 7 11 10 9 10 11 11
17 14 17 19 23 20 17 20 14 12 13 13 12 10 8 9 8 8 8 7 5 6 9 10 10 10 10 10 11 11 11 10 10 11 11 11 11 11
10 9 11 11 11 12 12 13 12 11 11 10 11 11 10 9 8 9 8 7 6 4 5 6 8 10 10 13 11 11 12 11 10 13 15 14 13 14
11 11 12 12 13 13 13 13 11 14 10 11 10 10 10 9 9 8 6 7 7 6 6 5 4 6 8 10 18 12 11 12 11 12 14 15 18 16
12 12 12 12 12 11 10 11 11 11 12 10 10 10 10 9 10 8 8 7 6 5 5 4 5 6 8 10 7 14 11 9 12 15 12 12 16 19
12 11 11 11 11 11 10 9 9 10 10 10 10 9 9 9 9 8 7 6 5 4 4 4 6 7 8 10 10 12 20 14 11 15 16 15 18 34
11 10 9 9 10 9 10 9 11 10 10 10 10 9 9 9 8 7 6 6 5 4 5 6 6 6 8 9 10 13 11 18 20 17 17 17 20 22
9 9 8 9 9 9 9 10 10 10 9 9 8 8 8 7 7 7 6 6 5 5 5 5 6 6 7 9 12 18 17 14 15 28 31 28 16 21
9 10 10 9 9 9 9 10 10 10 9 9 8 7 7 7 6 5 5 4 4 5 5 6 6 6 8 10 13 14 21 21 17 16 13 25 31 36
Wind_Direction
210 206 207 201 198 198 193 187 180 184 209 189 178 196 194 184 182 203 226 245 275 279 287 283 286 288 286 290 299 311 315 314 310 308 311 310 310 311
211 206 204 202 198 200 195 194 200 201 205 170 202 177 191 193 177 218 228 243 249 260 268 269 269 275 279 293 307 306 310 307 302 304 305 306 308 308
208 209 208 201 198 200 194 194 191 183 181 149 183 175 189 194 202 215 227 235 237 239 252 262 272 273 282 292 289 294 295 294 296 298 299 297 298 301
208 207 209 196 204 197 194 192 187 180 159 157 182 181 194 205 221 221 226 238 241 246 248 259 264 269 280 283 283 289 290 292 294 294 294 293 293 295
217 213 208 198 202 198 197 195 192 181 181 146 149 176 189 194 207 228 232 237 241 245 249 257 260 263 272 273 277 282 286 291 290 288 292 296 298 300
221 216 213 207 206 197 198 197 189 184 186 171 150 165 182 181 204 207 208 219 232 220 233 239 248 258 266 271 277 277 286 288 285 287 294 299 301 303
224 219 219 213 210 203 194 191 185 183 193 194 177 168 180 175 198 185 206 213 245 237 242 225 251 267 277 281 276 283 286 284 289 298 301 303 308 306
224 220 216 212 207 204 202 196 191 181 186 196 199 195 192 189 179 182 177 177 233 155 257 284 283 289 291 282 283 290 292 287 290 290 294 296 296 293
227 223 215 214 202 199 204 199 201 200 192 189 196 198 188 186 173 174 174 175 201 160 254 284 272 268 261 266 270 272 273 276 278 281 283 288 289 292
232 224 219 214 206 196 191 195 198 200 194 188 199 186 183 171 182 172 164 188 231 262 255 260 283 256 258 262 267 268 266 265 269 272 283 289 286 292
231 228 227 223 207 199 190 195 192 194 191 188 187 180 168 172 168 152 160 168 215 248 198 233 267 272 278 271 263 261 257 266 278 275 281 282 287 293
230 227 221 223 212 203 197 193 191 188 177 174 178 176 174 179 182 179 162 181 181 222 216 203 227 288 300 255 245 233 271 266 271 275 277 282 289 289
232 221 218 215 214 205 198 202 204 176 182 173 168 168 174 178 176 171 179 185 184 214 165 188 236 251 238 284 251 253 263 266 276 281 282 280 281 285
234 220 213 211 213 206 205 207 203 183 176 170 170 169 168 171 171 171 186 184 203 212 186 200 225 229 256 271 270 239 263 273 265 269 280 279 281 281
239 206 196 199 211 211 215 198 198 179 177 173 176 173 174 161 154 168 166 185 206 227 235 237 242 245 250 258 268 281 285 271 279 267 292 287 286 283
232 201 197 193 207 204 210 189 191 181 180 167 165 152 135 142 162 157 167 176 203 218 223 235 241 248 258 259 267 272 271 277 287 287 289 288 280 274
198 183 188 187 194 203 191 177 177 172 170 154 144 140 146 155 160 167 160 166 205 197 216 225 236 250 261 270 271 265 274 276 282 298 304 303 291 289
176 187 188 183 191 190 186 173 168 160 156 148 146 148 150 157 158 161 160 185 197 207 219 233 250 278 269 256 244 266 269 280 287 290 295 296 295 294
190 191 197 184 181 183 174 163 159 157 148 149 143 145 149 148 158 161 176 181 190 205 222 236 256 260 280 279 269 267 283 285 301 296 287 278 279 285
191 189 190 181 176 161 148 154 143 143 144 139 137 143 146 146 158 166 173 181 186 197 221 231 240 248 265 287 291 289 283 282 279 284 290 287 280 280
180 183 178 161 155 149 149 146 148 147 141 138 137 142 144 151 157 157 164 174 183 211 232 240 248 307 289 287 281 279 279 277 281 283 288 289 295 298
161 146 131 132 132 139 136 136 130 132 131 128 129 136 142 150 152 158 164 177 197 222 243 257 262 276 280 280 284 290 295 294 278 281 276 273 281 286
131 128 121 119 125 130 132 133 133 132 130 127 132 137 145 151 151 162 172 190 217 238 255 266 275 278 283 284 288 287 289 298 304 296 270 273 278 280